Anchorage Merrill, AK

10:04 AM AKDT on July 24, 2017 (GMT -0800)
Merrill

Weather History for PAMR - December, 2013

Change the Weather History Date:

Sunday, December 8, 2013

  Actual Average Record
Temperature  
Mean Temperature 32 °F -  
Max Temperature 33 °F 21 °F 46 °F (2005)
Min Temperature 28 °F 10 °F -7 °F (2001)
Degree Days  
Heating Degree Days 34    
Moisture  
Dew Point 28 °F    
Average Humidity 87    
Maximum Humidity 93    
Minimum Humidity 81    
Precipitation  
Precipitation 0.01 in - - ()
Sea Level Pressure  
Sea Level Pressure 30.44 in    
Wind  
Wind Speed 1 mph (SE)    
Max Wind Speed 8 mph    
Max Gust Speed -    
Visibility 4 miles    
Events Fog    
Averages and records for this station are not official NWS values.
T = Trace of Precipitation, MM = Missing Value Source: NWS Daily Summary

Daily Weather History Graph

Daily Weather History Graph

Search for Another Location

Airport or City:

Trip Planner

Search our weather history database for the weather conditions in past years. The results will help you decide how hot, cold, wet, or windy it might be!

Date:

Astronomy

Dec. 08, 2013 Rise Set
Actual Time 9:59 AM AKST 3:43 PM AKST
Civil Twilight 8:59 AM AKST 4:43 PM AKST
Nautical Twilight 8:00 AM AKST 5:42 PM AKST
Astronomical Twilight 7:07 AM AKST 6:35 PM AKST
Moon 12:54 PM AKST (12/8) No Moon Set
Length of Visible Light 7h 44m
Length of Day
5h 43m
Waxing Crescent, 41% of the Moon is Illuminated
Dec 8
Waxing Crescent
Dec 9
First Quarter
Dec 17
Full
Dec 25
Last Quarter
Jan 1
New

Hourly Weather History & Observations

Time (AKST) Temp. Windchill Dew Point Humidity Pressure Visibility Wind Dir Wind Speed Gust Speed Precip Events Conditions
12:53 AM 33.1 °F - 30.0 °F 89% 30.47 in 0.1 mi Calm Calm - N/A Fog Fog
1:53 AM 33.1 °F - 30.0 °F 89% 30.47 in 0.2 mi Calm Calm - N/A Fog Fog
3:53 AM 33.1 °F - 30.0 °F 89% 30.46 in 0.5 mi Calm Calm - N/A Fog Fog
4:29 AM 33.8 °F - 30.2 °F 87% 30.44 in 0.5 mi Calm Calm - N/A Fog Fog
4:31 AM 33.8 °F - 30.2 °F 87% 30.44 in 9.0 mi Calm Calm - N/A   Overcast
4:53 AM 33.1 °F - 30.0 °F 89% 30.46 in 10.0 mi Calm Calm - N/A   Overcast
5:35 AM 32.0 °F - 30.2 °F 93% 30.45 in 2.0 mi Calm Calm - N/A   Overcast
5:53 AM 32.0 °F - 28.9 °F 88% 30.47 in 3.0 mi Calm Calm - N/A   Overcast
6:44 AM 33.8 °F - 28.4 °F 81% 30.47 in 9.0 mi Calm Calm - N/A   Overcast
6:53 AM 32.0 °F - 30.0 °F 92% 30.48 in 0.8 mi Calm Calm - N/A   Overcast
7:14 AM 32.0 °F - 28.4 °F 87% 30.47 in 0.8 mi Calm Calm - N/A   Overcast
7:53 AM 32.0 °F - 30.0 °F 92% 30.48 in 0.8 mi Calm Calm - N/A   Mist
8:53 AM 33.1 °F - 30.0 °F 89% 30.48 in 0.8 mi Calm Calm - N/A   Overcast
9:53 AM 33.1 °F - 30.0 °F 89% 30.47 in 0.8 mi Calm Calm - 0.01 in   Overcast
10:53 AM 33.1 °F - 28.9 °F 85% 30.47 in 0.8 mi Calm Calm - N/A   Overcast
11:53 AM 33.1 °F - 28.9 °F 85% 30.45 in 1.0 mi Calm Calm - N/A   Overcast
12:53 PM 33.1 °F 28.7 °F 28.9 °F 85% 30.45 in 1.0 mi North 4.6 mph - N/A   Overcast
1:00 PM 33.8 °F 29.6 °F 28.4 °F 81% 30.44 in 7.0 mi NNE 4.6 mph - N/A   Overcast
1:49 PM 32.0 °F - 28.4 °F 87% 30.42 in 10.0 mi Calm Calm - N/A   Overcast
1:53 PM 32.0 °F 28.7 °F 28.0 °F 85% 30.43 in 10.0 mi NE 3.5 mph - N/A   Overcast
2:53 PM 32.0 °F 28.7 °F 28.0 °F 85% 30.43 in 10.0 mi NE 3.5 mph - N/A   Overcast
3:53 PM 30.9 °F - 28.0 °F 89% 30.42 in 8.0 mi Calm Calm - N/A   Overcast
4:18 PM 30.2 °F - 26.6 °F 86% 30.41 in 5.0 mi Calm Calm - N/A   Overcast
4:53 PM 30.9 °F - 27.0 °F 85% 30.41 in 5.0 mi Calm Calm - N/A   Overcast
4:55 PM 30.2 °F - 26.6 °F 86% 30.40 in 1.0 mi Calm Calm - N/A   Overcast
5:53 PM 30.9 °F 26.2 °F 28.0 °F 89% 30.42 in 0.8 mi South 4.6 mph - N/A   Overcast
6:53 PM 30.0 °F 25.2 °F 27.0 °F 88% 30.42 in 0.8 mi South 4.6 mph - N/A   Overcast
7:50 PM 30.2 °F 26.7 °F 26.6 °F 86% 30.41 in 1.5 mi South 3.5 mph - N/A   Overcast
7:53 PM 30.0 °F 25.2 °F 27.0 °F 88% 30.42 in 1.5 mi South 4.6 mph - N/A   Overcast
8:06 PM 30.2 °F 26.7 °F 26.6 °F 86% 30.41 in 1.5 mi South 3.5 mph - N/A   Overcast
8:53 PM 30.0 °F 22.4 °F 27.0 °F 88% 30.42 in 1.5 mi South 8.1 mph - N/A   Overcast
9:43 PM 30.2 °F - 26.6 °F 86% 30.40 in 10.0 mi Calm Calm - N/A   Overcast
9:53 PM 30.0 °F - 26.1 °F 85% 30.40 in 10.0 mi Calm Calm - N/A   Overcast
10:53 PM 30.0 °F - 26.1 °F 85% 30.40 in 10.0 mi Calm Calm - N/A   Overcast
11:53 PM 28.9 °F - 25.0 °F 85% 30.40 in 10.0 mi Calm Calm - N/A   Overcast